Showing default

TIROS 5, 309

Orbit data source: Space-Track

TIROS 5, 309 is a payload satellite owned by GSFC (US) in LEO that was launched on Tue, 19 Jun 1962 UTC via a THOR DELTA launch vehicle from the Air Force Eastern Test Range (AFETR). Payload-class satellites include a variety of spacecraft equipped with specific instruments for various scientific and technological missions. These include communications satellites like Starlink; space stations such as the ISS; scientific satellites like the Hubble; Earth observation satellites from companies like Planet Labs, Umbra, and HawkEye 360; GPS; miniature CubeSats for education and research; and military/defense satellites.

Loading next visibility...
Identifier
309, 1962-025A
Orbit
LEO
Country
Flag of USUS
Related business
Manufacturer
RCA/East Windsor
Mission
Non-operational spacecraft
Bus & Motor
TIROS, Unknown motor
Mass
129 kg wet, 129 kg dry
Launch date (UTC)
1962-06-19 (64 years ago)
Launch vehicle
THOR DELTA
Launch site
Air Force Eastern Test Range (AFETR)
Object type
Payload
Rocket body
Debris
Shape & HBR
Unknown
Radar Cross Section
Medium (>0.1 m² and <1 m²)

Expand to show TLE details & history
Last TLE update: 2 days ago

TLE from 2 days ago
0 TIROS 5
1   309U 62025A   26162.53439266  .00000237  00000-0  73497-4 0  9998
2   309  58.0904 240.5110 0177164 258.0436 100.0684 14.60657708381002
Epoch: 2026-06-11T12:49Z
TLE epoch observation values (Epoch: 2026-06-11T12:49:31.525Z)
Latitude
-0.00011°
Longitude
148.25277°
Altitude
716.458 km
Speed
7.485 km/s
True Right ascension
16h 02m 02s
True Declination
0° 00' 00"
Sunlit
Object was in full shadow at epoch
Visualization orbit readout
Latitude
Unknown
Longitude
Unknown
Altitude
Unknown
Speed
Unknown
Apparent Right ascension
Unknown
Apparent Declination
Unknown
Sunlit
N/A
Visualization observer readout
Local Sidereal Time
13:44:27
Azimuth
Unknown
Elevation
Unknown
Doppler factor
Unknown
Orbital elements
Apogee altitude
815.783 km
Perigee altitude
565.319 km
Semi-major axis
7,068.688 km
Eccentricity
0.01772
Inclination
58.0904°
RAAN
240.511°
Arg. of periapsis
258.0436°
True anomaly
102.05917°
Mean anomaly
100.0684°
Eccentric anomaly
101.06461°
Mean motion
3.65204 °/min
Orbital period
98.58 mins
BSTAR
0.000073497
Loading maneuver chart data...
Computing Atmospheric mass density...
Loading historical data...
Loading historical data...
Loading historical data...
Loading historical data...
Loading historical data...
Loading historical data...
Loading historical data...

Documentation

Showing up to 5 results
|